星链-3331 (STARLINK-3331 )

导读

STARLINK-3331是美国SpaceX公司星链(Starlink)星座的卫星之一,于2022年1月6日发射入轨。星链计划旨在打造全球低轨卫星互联网星座,为偏远、服务不足地区提供高速宽带接入,在全球多国已实现商业化服务。 该卫星运行于近地轨道,配备推进系统与通信载荷,可自主规避太空碰撞,支撑星座全球覆盖组网。星链计划因规模庞大,也引发了天文观测、太空安全等领域的争议。

Basic Information
目录编号:
50834
目录名称:
STARLINK-3331
国际标识:
2022-001AH
轨道中心:
EARTH
卫星名称:
星链-3331
卫星全名:
星链-3331 (STARLINK-3331 )
卫星状态:
在轨 (已飞行1702 天)
发射日期:
2022-01-06 UTC
国别 :
美国 (US)
星等 :
--
Orbit Information
数据来源 国际轨道数据
星历时间: 2026-09-03T21:56:22+0800
15小时前
查看轨道信息
半长轴: 6843.359km
偏心率: 0.0001122
轨道倾角: 53.160°
近地点辐角 92.658°
升交点赤经 89.024°
平近点角 267.455°
近地点: 464.454km
远地点: 465.99km
周期: 93.900分钟
每日圈数: 15.335532
Detailed Information
固有亮度:
5
最大亮度:
2.5
卫星平台:
Starlink v1.5
覆盖范围:
全球
运营商:
太空探索技术公司
运营商所在国:
美国
制造商(研发单位):
太空探索技术公司
制造商所在国:
美国
使用方式:
暂无
Satellite Introduction
星链(Starlink)计划是由太空探索技术公司(SpaceX)提出的一个巨型低轨卫星互联网星座项目,计划在2019年至2024年间在太空搭建由约1.2万颗卫星组成的“星链”网络,其中1584颗将部署在地球上空550千米处的近地轨道,并从2020年开始工作。该卫星仍在工作。
2D Orbit Map
3D Orbit Map
Orbit Altitude Analysis Chart
Orbit Inclination Analysis Chart
Orbit Comprehensive Analysis Chart
View Comprehensive Chart
Conjunction Data List
Event ID Objects TCA Miss Dist (km) Collision Risk Probability Collision Risk Index (CRI) Action
CDM_260904-140905-083406-886021
2026-09-04T
14:09:11+0000
2.182 km
极远距离
2.312698E-6 低风险 0.42
CDM_260904-181305-083406-767221
2026-09-04T
18:13:29+0000
2.181 km
极远距离
2.305091E-6 低风险 0.42
CDM_260828-074305-083406-773321
2026-08-28T
07:43:57+0000
2.243 km
极远距离
2.174103E-6 低风险 0.42
CDM_260904-151405-083406-758221
2026-09-04T
15:14:21+0000
2.282 km
极远距离
2.02208E-6 低风险 0.41
CDM_260902-191405-083406-876625
2026-09-02T
19:14:45+0000
2.463 km
极远距离
1.799178E-6 低风险 0.4
CDM_260904-235005-083406-758221
2026-09-04T
23:50:58+0000
2.496 km
极远距离
1.690864E-6 低风险 0.4
CDM_260904-234405-083406-970721
2026-09-04T
23:44:19+0000
2.549 km
极远距离
1.677429E-6 低风险 0.39
CDM_260904-070305-083405-389221
2026-09-04T
07:03:09+0000
2.556 km
极远距离
1.485357E-6 低风险 0.38
CDM_260904-123605-083406-590921
2026-09-04T
12:36:04+0000
2.634 km
极远距离
1.435156E-6 低风险 0.38
CDM_260904-234605-083406-444221
2026-09-04T
23:46:52+0000
2.477 km
极远距离
1.416678E-6 低风险 0.38